FPO761 LFQQ-LGRP

Flight info

Callsign FPO761
Flight time 3h 12m
Altitude 37000
Route CIV UM617 BUPAL UL607 SPI DCT ARCKY DCT LIRSU DCT KRH DCT KUNOD DCT GEDSO DCT VEKEN DCT DARZA DCT VRANA DCT POD DCT ENFAR DCT TALAS UN130 MES UN139 LURUS UL995 CODIC
Aircraft B738/M-SDE2E3FGHIJ1J4J5LM1OP2RVWXY/LB1D1

Departure

Time 2026-05-09 12:50
Airport Lille Airport (LFQQ)

Arrival

Time 2026-05-09 16:02
Airport Rhodes International Airport "Diagoras" (LGRP)
Time Latitude Longitude Altitude Speed Heading
2026-05-09 12:07 50.57105 3.10610 151 ft 0 kts 348°
2026-05-09 12:35 50.57093 3.10614 151 ft 2 kts 348°
2026-05-09 12:35 50.57078 3.10619 151 ft 2 kts 348°
2026-05-09 12:35 50.57063 3.10623 150 ft 2 kts 348°
2026-05-09 12:36 50.57048 3.10629 150 ft 2 kts 348°
2026-05-09 12:36 50.57036 3.10633 150 ft 1 kts 327°
2026-05-09 12:36 50.57030 3.10647 149 ft 1 kts 266°
2026-05-09 12:36 50.57034 3.10668 149 ft 2 kts 253°
2026-05-09 12:37 50.57036 3.10679 149 ft 0 kts 260°
2026-05-09 12:43 50.57033 3.10648 149 ft 5 kts 260°
2026-05-09 12:43 50.57022 3.10564 150 ft 8 kts 257°
2026-05-09 12:44 50.57007 3.10468 151 ft 10 kts 256°
2026-05-09 12:44 50.56988 3.10354 152 ft 11 kts 250°
2026-05-09 12:44 50.56914 3.10306 152 ft 14 kts 169°
2026-05-09 12:44 50.56810 3.10339 150 ft 15 kts 177°
2026-05-09 12:45 50.56759 3.10225 150 ft 13 kts 259°
2026-05-09 12:45 50.56741 3.10085 152 ft 13 kts 257°
2026-05-09 12:45 50.56720 3.09935 153 ft 14 kts 257°
2026-05-09 12:45 50.56695 3.09763 154 ft 17 kts 257°
2026-05-09 12:46 50.56668 3.09571 155 ft 18 kts 257°
2026-05-09 12:46 50.56640 3.09381 156 ft 17 kts 255°
2026-05-09 12:46 50.56615 3.09204 156 ft 16 kts 258°
2026-05-09 12:46 50.56576 3.09050 156 ft 14 kts 213°
2026-05-09 12:47 50.56478 3.09071 156 ft 14 kts 164°
2026-05-09 12:47 50.56388 3.09051 155 ft 13 kts 233°
2026-05-09 12:47 50.56365 3.08911 156 ft 14 kts 258°
2026-05-09 12:47 50.56341 3.08709 156 ft 21 kts 261°
2026-05-09 12:48 50.56325 3.08483 156 ft 18 kts 281°
2026-05-09 12:48 50.56342 3.08388 156 ft 5 kts 286°
2026-05-09 12:48 50.56344 3.08335 156 ft 4 kts 252°
2026-05-09 12:48 50.56320 3.08306 156 ft 5 kts 187°
2026-05-09 12:49 50.56296 3.08346 156 ft 6 kts 86°
2026-05-09 12:49 50.56308 3.08440 156 ft 15 kts 77°
2026-05-09 12:49 50.56377 3.08922 156 ft 76 kts 79°
2026-05-09 12:49 50.56534 3.10035 151 ft 130 kts 77°
2026-05-09 12:50 50.56759 3.11639 157 ft 169 kts 76°
2026-05-09 12:50 50.57021 3.13415 729 ft 167 kts 79°
2026-05-09 12:50 50.56911 3.15233 1206 ft 178 kts 114°
2026-05-09 12:50 50.56078 3.16650 1872 ft 180 kts 145°
2026-05-09 12:51 50.54926 3.17547 2371 ft 198 kts 154°
2026-05-09 12:51 50.53621 3.18475 2873 ft 215 kts 149°
2026-05-09 12:51 50.52286 3.19703 3470 ft 227 kts 144°
2026-05-09 12:51 50.50916 3.21160 3889 ft 251 kts 143°
2026-05-09 12:52 50.49513 3.22797 4659 ft 257 kts 139°
2026-05-09 12:52 50.48187 3.24695 5448 ft 263 kts 133°
2026-05-09 12:52 50.46930 3.26800 6223 ft 269 kts 131°
2026-05-09 12:52 50.45684 3.28968 7094 ft 272 kts 131°
2026-05-09 12:53 50.44403 3.31198 7871 ft 278 kts 132°
2026-05-09 12:53 50.43109 3.33426 8732 ft 280 kts 133°
2026-05-09 12:53 50.41756 3.35621 9421 ft 287 kts 136°
2026-05-09 12:53 50.40411 3.37950 10188 ft 293 kts 126°
2026-05-09 12:54 50.39542 3.40911 10699 ft 309 kts 103°
2026-05-09 12:54 50.39422 3.44345 11136 ft 326 kts 84°
2026-05-09 12:54 50.39992 3.47865 11549 ft 343 kts 68°
2026-05-09 12:54 50.41107 3.51189 12011 ft 356 kts 57°
2026-05-09 12:55 50.42554 3.54355 12685 ft 363 kts 51°
2026-05-09 12:55 50.44150 3.57465 13391 ft 368 kts 50°
2026-05-09 12:55 50.45779 3.60535 14162 ft 371 kts 49°
2026-05-09 12:55 50.47452 3.63697 14851 ft 377 kts 50°
2026-05-09 12:56 50.49057 3.66777 15514 ft 381 kts 51°
2026-05-09 12:56 50.50693 3.69964 16193 ft 385 kts 51°
2026-05-09 12:56 50.52332 3.73188 16879 ft 388 kts 52°
2026-05-09 12:56 50.53983 3.76459 17468 ft 394 kts 52°
2026-05-09 12:57 50.55653 3.79941 18133 ft 397 kts 56°
2026-05-09 12:57 50.57091 3.83627 18777 ft 400 kts 63°
2026-05-09 12:57 50.58244 3.87585 19405 ft 402 kts 70°
2026-05-09 12:57 50.59207 3.91746 20035 ft 404 kts 73°
2026-05-09 12:58 50.60053 3.95907 20622 ft 408 kts 75°
2026-05-09 12:58 50.60881 4.00215 21242 ft 410 kts 75°
2026-05-09 12:58 50.61695 4.04534 21866 ft 412 kts 76°
2026-05-09 12:58 50.62508 4.08844 22451 ft 414 kts 76°
2026-05-09 12:59 50.63325 4.13158 23007 ft 417 kts 76°
2026-05-09 12:59 50.64153 4.17504 23541 ft 420 kts 76°
2026-05-09 12:59 50.64993 4.21892 24068 ft 423 kts 75°
2026-05-09 12:59 50.65846 4.26336 24564 ft 427 kts 76°
2026-05-09 13:00 50.66705 4.30808 25075 ft 430 kts 76°
2026-05-09 13:00 50.67571 4.35316 25587 ft 432 kts 75°
2026-05-09 13:00 50.68429 4.39785 26032 ft 435 kts 75°
2026-05-09 13:00 50.69314 4.44404 26479 ft 439 kts 75°
2026-05-09 13:01 50.70192 4.48994 26922 ft 442 kts 75°
2026-05-09 13:01 50.70984 4.53650 27331 ft 444 kts 79°
2026-05-09 13:01 50.71441 4.58380 27717 ft 444 kts 88°
2026-05-09 13:01 50.71414 4.63204 28146 ft 443 kts 97°
2026-05-09 13:02 50.70913 4.67953 28550 ft 443 kts 105°
2026-05-09 13:02 50.70172 4.72488 28901 ft 445 kts 109°
2026-05-09 13:02 50.69291 4.77090 29301 ft 447 kts 110°
2026-05-09 13:02 50.68362 4.81654 29632 ft 451 kts 111°
2026-05-09 13:03 50.67402 4.86290 29972 ft 454 kts 111°
2026-05-09 13:03 50.66449 4.90900 30344 ft 456 kts 111°
2026-05-09 13:03 50.65490 4.95525 30841 ft 455 kts 111°
2026-05-09 13:03 50.64526 5.00129 31443 ft 452 kts 111°
2026-05-09 13:04 50.63553 5.04758 32035 ft 448 kts 110°
2026-05-09 13:04 50.62592 5.09327 32616 ft 444 kts 110°
2026-05-09 13:04 50.61936 5.12457 33003 ft 442 kts 110°
2026-05-09 13:05 50.58896 5.26980 34494 ft 435 kts 110°
2026-05-09 13:05 50.57962 5.31450 34943 ft 431 kts 110°
2026-05-09 13:05 50.57037 5.35877 35327 ft 428 kts 110°
2026-05-09 13:06 50.56182 5.39957 35590 ft 428 kts 110°
2026-05-09 13:06 50.55342 5.43959 35795 ft 429 kts 110°
2026-05-09 13:06 50.54358 5.48638 36029 ft 429 kts 110°
2026-05-09 13:06 50.53420 5.53091 36249 ft 430 kts 110°
2026-05-09 13:07 50.52437 5.57587 36503 ft 429 kts 112°
2026-05-09 13:07 50.51338 5.61903 36706 ft 430 kts 116°
2026-05-09 13:07 50.49997 5.66001 36939 ft 429 kts 122°
2026-05-09 13:07 50.48494 5.69902 37071 ft 430 kts 125°
2026-05-09 13:08 50.46851 5.73840 37070 ft 434 kts 126°
2026-05-09 13:08 50.43474 5.81653 37066 ft 435 kts 126°
2026-05-09 13:09 50.40093 5.89463 37059 ft 434 kts 126°
2026-05-09 13:09 50.36721 5.97302 37058 ft 435 kts 126°
2026-05-09 13:10 50.33519 6.04777 37058 ft 434 kts 126°
2026-05-09 13:10 50.30161 6.12628 37057 ft 434 kts 125°
2026-05-09 13:11 50.27065 6.20765 37058 ft 437 kts 120°
2026-05-09 13:11 50.24190 6.29151 37058 ft 438 kts 120°
2026-05-09 13:12 50.21325 6.37536 37059 ft 438 kts 120°
2026-05-09 13:12 50.18333 6.45767 37060 ft 438 kts 125°
2026-05-09 13:13 50.14695 6.53208 37063 ft 438 kts 131°
2026-05-09 13:13 50.10919 6.60071 37063 ft 437 kts 132°
2026-05-09 13:14 50.06894 6.67308 37063 ft 438 kts 133°
2026-05-09 13:16 49.91130 6.96022 37059 ft 439 kts 132°
2026-05-09 13:16 49.87405 7.02808 37060 ft 439 kts 132°
2026-05-09 13:17 49.83647 7.09639 37068 ft 441 kts 132°
2026-05-09 13:17 49.79678 7.16831 37068 ft 441 kts 132°
2026-05-09 13:18 49.75718 7.23988 37072 ft 441 kts 132°
2026-05-09 13:18 49.71923 7.30827 37073 ft 442 kts 131°
2026-05-09 13:19 49.67868 7.38120 37070 ft 442 kts 132°
2026-05-09 13:19 49.63849 7.45325 37065 ft 443 kts 132°
2026-05-09 13:20 49.59809 7.52545 37057 ft 445 kts 131°
2026-05-09 13:20 49.55760 7.59762 37050 ft 444 kts 131°
2026-05-09 13:21 49.51852 7.66709 37045 ft 446 kts 133°
2026-05-09 13:21 49.47752 7.73979 37048 ft 446 kts 133°
2026-05-09 13:22 49.43685 7.81168 37048 ft 445 kts 132°
2026-05-09 13:22 49.39631 7.88315 37044 ft 446 kts 133°
2026-05-09 13:23 49.29451 8.06177 37045 ft 446 kts 132°
2026-05-09 13:24 49.25375 8.13296 37046 ft 447 kts 132°
2026-05-09 13:24 49.21277 8.20432 37041 ft 448 kts 132°
2026-05-09 13:25 49.17183 8.27543 37038 ft 448 kts 132°
2026-05-09 13:26 49.10991 8.38259 37037 ft 450 kts 132°
2026-05-09 13:26 49.06864 8.45378 37038 ft 450 kts 133°
2026-05-09 13:27 49.02742 8.52467 37040 ft 450 kts 133°
2026-05-09 13:27 48.98612 8.59543 37042 ft 450 kts 133°
2026-05-09 13:28 48.94353 8.66524 37047 ft 452 kts 135°
2026-05-09 13:28 48.90041 8.73398 37047 ft 453 kts 135°
2026-05-09 13:29 48.85778 8.80170 37048 ft 452 kts 135°
2026-05-09 13:29 48.81552 8.86881 37047 ft 453 kts 135°
2026-05-09 13:30 48.77296 8.93643 37050 ft 454 kts 135°
2026-05-09 13:30 48.72992 9.00476 37052 ft 454 kts 135°
2026-05-09 13:31 48.68685 9.07300 37043 ft 455 kts 135°
2026-05-09 13:31 48.64293 9.14244 37051 ft 456 kts 135°
2026-05-09 13:32 48.59897 9.21178 37052 ft 457 kts 135°
2026-05-09 13:32 48.53329 9.31501 37053 ft 457 kts 135°
2026-05-09 13:33 48.48921 9.38402 37060 ft 457 kts 135°
2026-05-09 13:33 48.44517 9.45280 37059 ft 458 kts 135°
2026-05-09 13:34 48.40083 9.52187 37069 ft 460 kts 135°
2026-05-09 13:34 48.35645 9.59081 37059 ft 459 kts 135°
2026-05-09 13:35 48.31351 9.66119 37064 ft 461 kts 132°
2026-05-09 13:35 48.27322 9.73594 37064 ft 461 kts 130°
2026-05-09 13:36 48.23334 9.81188 37062 ft 462 kts 130°
2026-05-09 13:36 48.19353 9.88695 37060 ft 462 kts 130°
2026-05-09 13:37 48.15327 9.96195 37066 ft 463 kts 130°
2026-05-09 13:37 48.11283 10.03665 37073 ft 463 kts 131°
2026-05-09 13:38 48.08154 10.09414 37073 ft 464 kts 131°
2026-05-09 13:38 48.04098 10.16842 37078 ft 465 kts 131°
2026-05-09 13:39 48.00030 10.24270 37072 ft 465 kts 131°
2026-05-09 13:39 47.95960 10.31689 37074 ft 466 kts 131°
2026-05-09 13:40 47.91869 10.39118 37073 ft 466 kts 131°
2026-05-09 13:40 47.88355 10.45481 37070 ft 466 kts 131°
2026-05-09 13:41 47.83847 10.53624 37072 ft 469 kts 131°
2026-05-09 13:41 47.79682 10.61123 37080 ft 469 kts 131°
2026-05-09 13:42 47.75707 10.68261 37083 ft 469 kts 133°
2026-05-09 13:42 47.71538 10.75730 37086 ft 469 kts 133°
2026-05-09 13:43 47.67375 10.83169 37082 ft 469 kts 133°
2026-05-09 13:43 47.63206 10.90599 37101 ft 469 kts 133°
2026-05-09 13:44 47.59022 10.98029 37111 ft 472 kts 133°
2026-05-09 13:44 47.54839 11.05441 37127 ft 471 kts 133°
2026-05-09 13:45 47.50632 11.12874 37120 ft 472 kts 133°
2026-05-09 13:45 47.46417 11.20303 37109 ft 473 kts 133°
2026-05-09 13:46 47.42186 11.27736 37092 ft 472 kts 133°
2026-05-09 13:46 47.37973 11.35122 37091 ft 474 kts 133°
2026-05-09 13:47 47.33712 11.42569 37094 ft 474 kts 133°
2026-05-09 13:47 47.29463 11.49978 37102 ft 474 kts 133°
2026-05-09 13:48 47.25229 11.57339 37116 ft 475 kts 133°
2026-05-09 13:48 47.20964 11.64731 37163 ft 474 kts 133°
2026-05-09 13:49 47.16911 11.71740 37161 ft 473 kts 134°
2026-05-09 13:49 47.12645 11.79097 37158 ft 474 kts 134°
2026-05-09 13:50 47.08562 11.86585 37169 ft 476 kts 127°
2026-05-09 13:50 47.05254 11.94768 37160 ft 479 kts 120°
2026-05-09 13:51 47.02319 12.03473 37164 ft 481 kts 117°
2026-05-09 13:51 46.99471 12.12270 37133 ft 480 kts 117°
2026-05-09 13:52 46.96580 12.21091 37137 ft 478 kts 118°
2026-05-09 13:52 46.93667 12.29826 37128 ft 482 kts 118°
2026-05-09 13:53 46.90736 12.38518 37131 ft 478 kts 118°
2026-05-09 13:53 46.87882 12.46922 37158 ft 480 kts 118°
2026-05-09 13:54 46.84945 12.55532 37148 ft 480 kts 118°
2026-05-09 13:54 46.81941 12.64313 37139 ft 482 kts 118°
2026-05-09 13:55 46.79029 12.72797 37120 ft 480 kts 119°
2026-05-09 13:55 46.76040 12.81474 37111 ft 481 kts 119°
2026-05-09 13:56 46.73022 12.90198 37128 ft 481 kts 119°
2026-05-09 13:56 46.70013 12.98875 37111 ft 483 kts 119°
2026-05-09 13:57 46.66996 13.07548 37115 ft 481 kts 119°
2026-05-09 13:57 46.63990 13.16155 37112 ft 482 kts 119°
2026-05-09 13:58 46.60953 13.24830 37126 ft 484 kts 119°
2026-05-09 13:58 46.57898 13.33400 37113 ft 483 kts 121°
2026-05-09 13:59 46.54221 13.41497 37113 ft 480 kts 132°
2026-05-09 13:59 46.49822 13.48718 37097 ft 480 kts 137°
2026-05-09 14:00 46.45972 13.54575 37120 ft 481 kts 137°
2026-05-09 14:00 46.42902 13.59212 37268 ft 486 kts 137°
2026-05-09 14:00 46.40551 13.62778 37450 ft 489 kts 137°
2026-05-09 14:01 46.38368 13.66108 37694 ft 489 kts 138°
2026-05-09 14:01 46.36044 13.69672 38041 ft 486 kts 137°
2026-05-09 14:01 46.33762 13.73186 38463 ft 480 kts 137°
2026-05-09 14:01 46.31462 13.76734 38779 ft 479 kts 137°
2026-05-09 14:02 46.29191 13.80238 38886 ft 480 kts 137°
2026-05-09 14:02 46.26916 13.83745 39043 ft 482 kts 137°
2026-05-09 14:02 46.22313 13.90836 39103 ft 483 kts 137°
2026-05-09 14:03 46.17729 13.97887 39076 ft 481 kts 137°
2026-05-09 14:03 46.13169 14.04885 39070 ft 479 kts 137°
2026-05-09 14:04 46.08594 14.11883 39062 ft 481 kts 137°
2026-05-09 14:04 46.04033 14.18843 39067 ft 481 kts 137°
2026-05-09 14:05 45.99414 14.25872 39045 ft 482 kts 137°
2026-05-09 14:05 45.94823 14.32837 39058 ft 482 kts 137°
2026-05-09 14:06 45.90210 14.39821 39045 ft 483 kts 137°
2026-05-09 14:06 45.85592 14.46798 39052 ft 482 kts 137°
2026-05-09 14:07 45.80955 14.53777 39080 ft 485 kts 137°
2026-05-09 14:07 45.76331 14.60718 39070 ft 483 kts 137°
2026-05-09 14:08 45.71699 14.67659 39064 ft 484 kts 138°
2026-05-09 14:08 45.67022 14.74649 39061 ft 485 kts 138°
2026-05-09 14:09 45.62371 14.81587 39059 ft 483 kts 139°
2026-05-09 14:09 45.57746 14.88463 39075 ft 485 kts 139°
2026-05-09 14:10 45.50726 14.98865 39058 ft 487 kts 138°
2026-05-09 14:11 45.46073 15.05799 39056 ft 486 kts 137°
2026-05-09 14:11 45.41456 15.12810 39050 ft 486 kts 137°
2026-05-09 14:12 45.36843 15.19829 39068 ft 487 kts 137°
2026-05-09 14:12 45.32226 15.26829 39058 ft 486 kts 137°
2026-05-09 14:13 45.27591 15.33823 39048 ft 487 kts 137°
2026-05-09 14:15 45.08953 15.61731 39054 ft 489 kts 137°
2026-05-09 14:15 45.04322 15.68616 39051 ft 489 kts 138°
2026-05-09 14:16 44.99647 15.75545 39057 ft 490 kts 138°
2026-05-09 14:16 44.94926 15.82532 39036 ft 490 kts 138°
2026-05-09 14:17 44.90241 15.89444 39049 ft 491 kts 138°
2026-05-09 14:17 44.85633 15.96229 39063 ft 490 kts 138°
2026-05-09 14:18 44.80942 16.03118 39061 ft 490 kts 138°
2026-05-09 14:18 44.76198 16.10062 39065 ft 489 kts 138°
2026-05-09 14:19 44.71490 16.16938 39065 ft 491 kts 138°
2026-05-09 14:19 44.66772 16.23813 39072 ft 491 kts 138°
2026-05-09 14:20 44.62037 16.30700 39076 ft 490 kts 137°
2026-05-09 14:20 44.57299 16.37570 39065 ft 491 kts 138°
2026-05-09 14:21 44.50180 16.47858 39087 ft 492 kts 138°
2026-05-09 14:21 44.45395 16.54750 39074 ft 491 kts 137°
2026-05-09 14:22 44.40651 16.61573 39081 ft 491 kts 138°
2026-05-09 14:22 44.35885 16.68407 39084 ft 490 kts 139°
2026-05-09 14:23 44.31141 16.75190 39086 ft 490 kts 138°
2026-05-09 14:23 44.26382 16.81977 39091 ft 492 kts 138°
2026-05-09 14:24 44.21603 16.88778 39095 ft 491 kts 139°
2026-05-09 14:24 44.16814 16.95576 39098 ft 494 kts 139°
2026-05-09 14:25 44.11994 17.02404 39105 ft 494 kts 139°
2026-05-09 14:25 44.07204 17.09172 39100 ft 493 kts 139°
2026-05-09 14:26 44.02380 17.15966 39108 ft 496 kts 139°
2026-05-09 14:26 43.97527 17.22783 39118 ft 496 kts 138°
2026-05-09 14:27 43.92704 17.29549 39117 ft 495 kts 139°
2026-05-09 14:27 43.87918 17.36246 39106 ft 496 kts 138°
2026-05-09 14:28 43.83089 17.42986 39100 ft 495 kts 138°
2026-05-09 14:28 43.78231 17.49748 39105 ft 496 kts 138°
2026-05-09 14:29 43.73386 17.56435 39106 ft 495 kts 139°
2026-05-09 14:29 43.68349 17.63016 39096 ft 496 kts 140°
2026-05-09 14:30 43.63278 17.69480 39093 ft 495 kts 142°
2026-05-09 14:30 43.58252 17.75883 39088 ft 493 kts 142°
2026-05-09 14:31 43.53228 17.82294 39091 ft 496 kts 141°
2026-05-09 14:31 43.48168 17.88757 39100 ft 497 kts 141°
2026-05-09 14:32 43.43117 17.95210 39103 ft 495 kts 141°
2026-05-09 14:32 43.38081 18.01632 39116 ft 496 kts 141°
2026-05-09 14:33 43.32997 18.08099 39100 ft 496 kts 141°
2026-05-09 14:33 43.27968 18.14487 39093 ft 494 kts 141°
2026-05-09 14:34 43.22936 18.20859 39096 ft 496 kts 141°
2026-05-09 14:34 43.17899 18.27220 39092 ft 497 kts 141°
2026-05-09 14:35 43.12826 18.33609 39088 ft 497 kts 141°
2026-05-09 14:35 43.07732 18.40010 39084 ft 497 kts 141°
2026-05-09 14:36 43.02657 18.46375 39098 ft 497 kts 141°
2026-05-09 14:36 42.97570 18.52742 39100 ft 497 kts 141°
2026-05-09 14:37 42.92467 18.59107 39094 ft 498 kts 141°
2026-05-09 14:37 42.87357 18.65469 39099 ft 499 kts 141°
2026-05-09 14:38 42.82253 18.71811 39106 ft 498 kts 141°
2026-05-09 14:38 42.77148 18.78139 39107 ft 499 kts 141°
2026-05-09 14:39 42.71989 18.84519 39108 ft 498 kts 142°
2026-05-09 14:39 42.66883 18.90821 39106 ft 499 kts 142°
2026-05-09 14:40 42.61729 18.97164 39108 ft 500 kts 142°
2026-05-09 14:40 42.56582 19.03484 39105 ft 498 kts 141°
2026-05-09 14:41 42.51455 19.09762 39100 ft 498 kts 141°
2026-05-09 14:41 42.46310 19.16047 39085 ft 499 kts 141°
2026-05-09 14:42 42.41248 19.22422 39072 ft 501 kts 136°
2026-05-09 14:42 42.36744 19.29639 38995 ft 504 kts 128°
2026-05-09 14:43 42.34711 19.33488 39144 ft 502 kts 126°
2026-05-09 14:43 42.32771 19.37386 39009 ft 504 kts 124°
2026-05-09 14:43 42.29017 19.45319 39082 ft 504 kts 122°
2026-05-09 14:44 42.25264 19.53369 39081 ft 505 kts 123°
2026-05-09 14:44 42.21518 19.61333 39083 ft 503 kts 123°
2026-05-09 14:45 42.17731 19.69302 39072 ft 504 kts 124°
2026-05-09 14:45 42.13935 19.77227 39087 ft 505 kts 124°
2026-05-09 14:46 42.10125 19.85144 39084 ft 506 kts 124°
2026-05-09 14:46 42.06289 19.93092 39085 ft 504 kts 124°
2026-05-09 14:47 42.02478 20.00966 39081 ft 506 kts 124°
2026-05-09 14:47 41.98613 20.08937 39085 ft 505 kts 124°
2026-05-09 14:48 41.94802 20.16769 39088 ft 505 kts 124°
2026-05-09 14:48 41.90939 20.24692 39083 ft 505 kts 123°
2026-05-09 14:49 41.87103 20.32536 39087 ft 505 kts 124°
2026-05-09 14:49 41.83233 20.40433 39092 ft 505 kts 124°
2026-05-09 14:50 41.79400 20.48236 39096 ft 505 kts 124°
2026-05-09 14:50 41.75535 20.56082 39098 ft 505 kts 124°
2026-05-09 14:51 41.71683 20.63927 39097 ft 505 kts 123°
2026-05-09 14:51 41.67816 20.71801 39099 ft 506 kts 124°
2026-05-09 14:52 41.63933 20.79688 39089 ft 506 kts 124°
2026-05-09 14:52 41.60085 20.87479 39092 ft 506 kts 124°
2026-05-09 14:53 41.56195 20.95331 39088 ft 506 kts 124°
2026-05-09 14:53 41.52312 21.03153 39085 ft 507 kts 124°
2026-05-09 14:54 41.48407 21.10997 39077 ft 507 kts 124°
2026-05-09 14:54 41.44525 21.18770 39070 ft 506 kts 124°
2026-05-09 14:55 41.40617 21.26573 39067 ft 507 kts 124°
2026-05-09 14:55 41.36716 21.34344 39071 ft 508 kts 124°
2026-05-09 14:56 41.32795 21.42138 39060 ft 508 kts 124°
2026-05-09 14:56 41.28842 21.49978 39073 ft 508 kts 124°
2026-05-09 14:57 41.24913 21.57746 39054 ft 508 kts 124°
2026-05-09 14:57 41.20974 21.65516 39067 ft 507 kts 125°
2026-05-09 14:58 41.17048 21.73235 39066 ft 508 kts 125°
2026-05-09 14:58 41.13074 21.81030 39054 ft 510 kts 124°
2026-05-09 14:59 41.09109 21.88798 39053 ft 509 kts 125°
2026-05-09 14:59 41.05085 21.96490 39032 ft 513 kts 127°
2026-05-09 15:00 41.00813 22.04028 39026 ft 509 kts 128°
2026-05-09 15:00 40.96494 22.11455 39037 ft 509 kts 128°
2026-05-09 15:01 40.90055 22.22565 39045 ft 512 kts 128°
2026-05-09 15:02 40.85752 22.30035 39025 ft 510 kts 128°
2026-05-09 15:02 40.81470 22.37477 38996 ft 508 kts 128°
2026-05-09 15:03 40.77220 22.44852 38982 ft 508 kts 128°
2026-05-09 15:03 40.72932 22.52277 38980 ft 506 kts 128°
2026-05-09 15:04 40.68665 22.59652 38990 ft 506 kts 128°
2026-05-09 15:06 40.51537 22.89059 39004 ft 506 kts 129°
2026-05-09 15:06 40.47268 22.96349 39005 ft 506 kts 129°
2026-05-09 15:07 40.42784 23.03462 38995 ft 505 kts 134°
2026-05-09 15:07 40.37965 23.10151 39006 ft 506 kts 136°
2026-05-09 15:08 40.33042 23.16766 39008 ft 504 kts 136°
2026-05-09 15:08 40.25752 23.26625 38990 ft 506 kts 136°
2026-05-09 15:10 40.06276 23.53223 38999 ft 506 kts 135°
2026-05-09 15:11 40.01415 23.59840 38990 ft 506 kts 135°
2026-05-09 15:11 39.96541 23.66458 38971 ft 507 kts 136°
2026-05-09 15:12 39.91677 23.73043 38965 ft 507 kts 136°
2026-05-09 15:12 39.86771 23.79672 38965 ft 508 kts 136°
2026-05-09 15:13 39.81880 23.86269 38964 ft 507 kts 136°
2026-05-09 15:13 39.76971 23.92879 38970 ft 508 kts 135°
2026-05-09 15:14 39.72062 23.99473 38965 ft 508 kts 136°
2026-05-09 15:14 39.67149 24.06056 38979 ft 507 kts 136°
2026-05-09 15:15 39.62270 24.12579 38982 ft 510 kts 136°
2026-05-09 15:15 39.57328 24.19171 38985 ft 508 kts 136°
2026-05-09 15:16 39.52424 24.25701 38981 ft 508 kts 136°
2026-05-09 15:16 39.47468 24.32291 38977 ft 506 kts 136°
2026-05-09 15:17 39.42575 24.38773 38974 ft 509 kts 136°
2026-05-09 15:17 39.37627 24.45313 38987 ft 509 kts 136°
2026-05-09 15:18 39.32688 24.51838 38984 ft 508 kts 136°
2026-05-09 15:18 39.27797 24.58355 38979 ft 508 kts 135°
2026-05-09 15:19 39.22887 24.64924 38980 ft 507 kts 136°
2026-05-09 15:19 39.17979 24.71480 38982 ft 510 kts 136°
2026-05-09 15:20 39.10564 24.81341 38981 ft 509 kts 136°
2026-05-09 15:21 39.05615 24.87834 38983 ft 509 kts 137°
2026-05-09 15:21 39.00647 24.94266 38987 ft 511 kts 137°
2026-05-09 15:22 38.95629 25.00734 38986 ft 510 kts 137°
2026-05-09 15:22 38.90625 25.07181 38990 ft 512 kts 137°
2026-05-09 15:23 38.85625 25.13619 38981 ft 509 kts 137°
2026-05-09 15:23 38.80621 25.20056 38979 ft 509 kts 137°
2026-05-09 15:24 38.75629 25.26459 38972 ft 509 kts 137°
2026-05-09 15:24 38.70638 25.32849 38981 ft 510 kts 137°
2026-05-09 15:25 38.65596 25.39290 38974 ft 509 kts 137°
2026-05-09 15:25 38.60595 25.45668 38969 ft 510 kts 137°
2026-05-09 15:26 38.53080 25.55225 38973 ft 510 kts 137°
2026-05-09 15:26 38.48042 25.61620 38970 ft 510 kts 137°
2026-05-09 15:27 38.43020 25.67976 38971 ft 510 kts 138°
2026-05-09 15:27 38.37962 25.74367 38981 ft 509 kts 138°
2026-05-09 15:28 38.32924 25.80730 38974 ft 512 kts 137°
2026-05-09 15:28 38.27788 25.86964 38981 ft 511 kts 143°
2026-05-09 15:29 38.21956 25.91821 38985 ft 500 kts 160°
2026-05-09 15:29 38.15556 25.95218 38984 ft 496 kts 166°
2026-05-09 15:30 38.09053 25.98148 38968 ft 494 kts 168°
2026-05-09 15:30 38.02592 26.00975 38963 ft 497 kts 168°
2026-05-09 15:31 37.96039 26.03867 38979 ft 497 kts 167°
2026-05-09 15:31 37.89543 26.06775 38979 ft 494 kts 167°
2026-05-09 15:32 37.83097 26.09683 38992 ft 495 kts 167°
2026-05-09 15:32 37.76559 26.12630 38990 ft 496 kts 167°
2026-05-09 15:33 37.70085 26.15548 39000 ft 494 kts 167°
2026-05-09 15:33 37.63620 26.18454 38982 ft 492 kts 167°
2026-05-09 15:34 37.57167 26.21351 38985 ft 491 kts 167°
2026-05-09 15:34 37.50754 26.24223 38980 ft 490 kts 167°
2026-05-09 15:35 37.44282 26.27114 38985 ft 491 kts 167°
2026-05-09 15:35 37.37867 26.29980 39002 ft 489 kts 168°
2026-05-09 15:36 37.31472 26.32826 38859 ft 491 kts 168°
2026-05-09 15:36 37.28205 26.34274 37747 ft 499 kts 167°
2026-05-09 15:36 37.24982 26.35706 37303 ft 493 kts 168°
2026-05-09 15:37 37.21746 26.37148 36697 ft 490 kts 168°
2026-05-09 15:37 37.18518 26.38582 35787 ft 496 kts 168°
2026-05-09 15:37 37.15266 26.40017 34867 ft 504 kts 168°
2026-05-09 15:37 37.11975 26.41468 34258 ft 503 kts 168°
2026-05-09 15:38 37.08682 26.42929 33754 ft 500 kts 168°
2026-05-09 15:38 37.05412 26.44381 33204 ft 497 kts 168°
2026-05-09 15:38 37.02146 26.45830 32662 ft 494 kts 168°
2026-05-09 15:38 36.98940 26.47253 32130 ft 491 kts 168°
2026-05-09 15:39 36.95716 26.48773 31597 ft 491 kts 163°
2026-05-09 15:39 36.92673 26.50719 31069 ft 496 kts 152°
2026-05-09 15:39 36.90005 26.53335 30547 ft 500 kts 138°
2026-05-09 15:39 36.87714 26.56718 30015 ft 500 kts 126°
2026-05-09 15:40 36.85965 26.60401 29494 ft 497 kts 117°
2026-05-09 15:40 36.84439 26.64274 28964 ft 494 kts 114°
2026-05-09 15:40 36.83046 26.68154 28416 ft 490 kts 113°
2026-05-09 15:40 36.81711 26.72062 27885 ft 486 kts 112°
2026-05-09 15:41 36.80415 26.75936 27351 ft 483 kts 112°
2026-05-09 15:41 36.79142 26.79756 26831 ft 479 kts 112°
2026-05-09 15:41 36.77867 26.83564 26305 ft 475 kts 112°
2026-05-09 15:41 36.76593 26.87335 25780 ft 471 kts 112°
2026-05-09 15:42 36.75310 26.91102 25256 ft 467 kts 113°
2026-05-09 15:42 36.74058 26.94759 24737 ft 464 kts 113°
2026-05-09 15:42 36.72785 26.98453 24215 ft 460 kts 114°
2026-05-09 15:42 36.71535 27.02066 23702 ft 456 kts 114°
2026-05-09 15:43 36.70274 27.05700 23178 ft 452 kts 114°
2026-05-09 15:43 36.69042 27.09241 22676 ft 448 kts 114°
2026-05-09 15:43 36.67812 27.12771 22168 ft 445 kts 114°
2026-05-09 15:43 36.66582 27.16298 21641 ft 442 kts 114°
2026-05-09 15:44 36.65355 27.19807 21145 ft 438 kts 114°
2026-05-09 15:44 36.64145 27.23265 20632 ft 435 kts 114°
2026-05-09 15:44 36.62946 27.26685 20108 ft 432 kts 114°
2026-05-09 15:44 36.61761 27.30061 19620 ft 429 kts 115°
2026-05-09 15:45 36.60572 27.33445 19101 ft 425 kts 115°
2026-05-09 15:45 36.59388 27.36813 18602 ft 421 kts 115°
2026-05-09 15:45 36.58219 27.40136 18110 ft 418 kts 115°
2026-05-09 15:45 36.57061 27.43426 17599 ft 414 kts 115°
2026-05-09 15:46 36.55915 27.46678 17104 ft 410 kts 115°
2026-05-09 15:46 36.54786 27.49877 16615 ft 406 kts 115°
2026-05-09 15:46 36.53654 27.53080 16126 ft 402 kts 115°
2026-05-09 15:46 36.52534 27.56246 15639 ft 399 kts 115°
2026-05-09 15:47 36.51416 27.59400 15160 ft 395 kts 115°
2026-05-09 15:47 36.50329 27.62467 15017 ft 380 kts 115°
2026-05-09 15:47 36.49290 27.65400 15016 ft 362 kts 116°
2026-05-09 15:47 36.48295 27.68207 15020 ft 350 kts 116°
2026-05-09 15:48 36.47335 27.70956 15027 ft 351 kts 114°
2026-05-09 15:48 36.46525 27.73825 14568 ft 360 kts 103°
2026-05-09 15:48 36.46287 27.76939 14020 ft 360 kts 90°
2026-05-09 15:48 36.46344 27.80029 13276 ft 367 kts 86°
2026-05-09 15:49 36.46480 27.83230 12648 ft 369 kts 86°
2026-05-09 15:49 36.46639 27.86362 12217 ft 364 kts 85°
2026-05-09 15:49 36.46807 27.89480 11767 ft 360 kts 85°
2026-05-09 15:49 36.46980 27.92546 11199 ft 357 kts 85°
2026-05-09 15:50 36.47155 27.95569 10847 ft 341 kts 85°
2026-05-09 15:50 36.47325 27.98420 10566 ft 326 kts 85°
2026-05-09 15:50 36.47617 28.01145 10224 ft 314 kts 75°
2026-05-09 15:50 36.48295 28.03676 9727 ft 309 kts 68°
2026-05-09 15:51 36.49114 28.06121 9213 ft 304 kts 66°
2026-05-09 15:51 36.49952 28.08503 8748 ft 300 kts 65°
2026-05-09 15:51 36.50785 28.10839 8318 ft 293 kts 65°
2026-05-09 15:51 36.51611 28.13134 7949 ft 285 kts 65°
2026-05-09 15:52 36.53215 28.17516 7256 ft 273 kts 65°
2026-05-09 15:52 36.53999 28.19628 6982 ft 268 kts 65°
2026-05-09 15:52 36.54773 28.21703 6825 ft 260 kts 65°
2026-05-09 15:53 36.55529 28.23726 6565 ft 257 kts 65°
2026-05-09 15:53 36.56282 28.25736 6271 ft 255 kts 65°
2026-05-09 15:53 36.57026 28.27719 5981 ft 255 kts 65°
2026-05-09 15:53 36.57773 28.29693 5721 ft 252 kts 65°
2026-05-09 15:54 36.58524 28.31669 5445 ft 250 kts 65°
2026-05-09 15:54 36.59255 28.33599 5319 ft 248 kts 65°
2026-05-09 15:54 36.59859 28.35625 5173 ft 248 kts 83°
2026-05-09 15:54 36.59716 28.37727 5032 ft 244 kts 113°
2026-05-09 15:55 36.58773 28.39414 4899 ft 239 kts 143°
2026-05-09 15:55 36.57306 28.40339 4778 ft 235 kts 168°
2026-05-09 15:55 36.55696 28.40353 4633 ft 232 kts 197°
2026-05-09 15:55 36.54263 28.39474 4529 ft 230 kts 213°
2026-05-09 15:56 36.52931 28.38343 4385 ft 230 kts 215°
2026-05-09 15:56 36.51641 28.37213 4259 ft 224 kts 215°
2026-05-09 15:56 36.50402 28.36124 4123 ft 213 kts 215°
2026-05-09 15:56 36.49212 28.35072 3983 ft 204 kts 216°
2026-05-09 15:57 36.48212 28.33908 3901 ft 191 kts 232°
2026-05-09 15:57 36.47581 28.32507 3736 ft 183 kts 245°
2026-05-09 15:57 36.47117 28.31056 3471 ft 181 kts 247°
2026-05-09 15:57 36.46685 28.29609 3251 ft 173 kts 248°
2026-05-09 15:58 36.46281 28.28229 3009 ft 170 kts 247°
2026-05-09 15:58 36.45883 28.26871 2733 ft 166 kts 248°
2026-05-09 15:58 36.45502 28.25561 2567 ft 159 kts 248°
2026-05-09 15:58 36.45119 28.24250 2332 ft 161 kts 248°
2026-05-09 15:59 36.44742 28.22958 2091 ft 157 kts 248°
2026-05-09 15:59 36.44375 28.21702 1888 ft 155 kts 248°
2026-05-09 15:59 36.44006 28.20456 1801 ft 150 kts 248°
2026-05-09 15:59 36.43650 28.19225 1533 ft 153 kts 248°
2026-05-09 16:00 36.43297 28.17989 1300 ft 148 kts 249°
2026-05-09 16:00 36.43068 28.17199 1125 ft 145 kts 248°
2026-05-09 16:00 36.42603 28.15662 894 ft 142 kts 248°
2026-05-09 16:00 36.42270 28.14506 733 ft 142 kts 249°
2026-05-09 16:01 36.41924 28.13344 555 ft 144 kts 248°
2026-05-09 16:01 36.41575 28.12182 355 ft 146 kts 249°
2026-05-09 16:01 36.41233 28.10996 172 ft 145 kts 250°
2026-05-09 16:01 36.40891 28.09838 33 ft 136 kts 250°
2026-05-09 16:02 36.40613 28.08891 29 ft 92 kts 250°
2026-05-09 16:02 36.40346 28.07976 21 ft 36 kts 250°
2026-05-09 16:02 36.40273 28.07722 23 ft 18 kts 250°
2026-05-09 16:03 36.40214 28.07603 25 ft 15 kts 201°
2026-05-09 16:03 36.40110 28.07631 25 ft 15 kts 159°
2026-05-09 16:03 36.40093 28.07733 25 ft 14 kts 68°
2026-05-09 16:03 36.40128 28.07847 25 ft 13 kts 70°
2026-05-09 16:04 36.40161 28.07960 24 ft 14 kts 70°
2026-05-09 16:04 36.40194 28.08071 25 ft 13 kts 69°
2026-05-09 16:04 36.40228 28.08190 25 ft 16 kts 71°
2026-05-09 16:04 36.40269 28.08330 25 ft 17 kts 70°
2026-05-09 16:05 36.40308 28.08465 27 ft 15 kts 70°
2026-05-09 16:05 36.40345 28.08592 28 ft 14 kts 70°
2026-05-09 16:05 36.40375 28.08692 31 ft 10 kts 69°
2026-05-09 16:05 36.40397 28.08772 32 ft 9 kts 76°
2026-05-09 16:06 36.40403 28.08839 34 ft 7 kts 90°
2026-05-09 16:06 36.40399 28.08906 36 ft 7 kts 96°
2026-05-09 16:06 36.40395 28.08957 37 ft 4 kts 90°
2026-05-09 16:06 36.40402 28.09012 37 ft 7 kts 75°
2026-05-09 16:07 36.40393 28.09073 37 ft 6 kts 150°
2026-05-09 16:07 36.40367 28.09086 38 ft 1 kts 159°
2026-05-09 16:07 36.40357 28.09090 38 ft 1 kts 160°
2026-05-09 16:07 36.40353 28.09092 38 ft 0 kts 160°